Location: Tauranga
(37.6860°S, 176.1670°E)
Time: 13:52:01
(UTC+13:00)

CZ-2D R/B - Pass Details

Date: 24 January 2019
Orbit: 523 x 538 km, 97.4° (Epoch: 13 October)

Event Time Altitude Azimuth Distance (km) Brightness Sun altitude
Rises 21:25:32 0° 173° (S) 2,731 7.3 -9.6°
Reaches altitude 10° 21:27:41 10° 177° (S) 1,832 6.4 -10.0°
Maximum altitude 21:31:34 56° 255° (WSW) 654 4.1 -10.6°
Drops below altitude 10° 21:35:24 10° 333° (NNW) 1,806 5.9 -11.2°
Sets 21:37:32 0° 337° (NNW) 2,689 6.7 -11.6°
